Location: Brantley
(31.5822°N, 86.2569°W)
Time: 07:21:47
(UTC+00:00)

Courier 1B Rocket - Pass Details

Date: 19 February 2026
Orbit: 920 x 1201 km, 28.2° (Epoch: 9 March)

Event Time Altitude Azimuth Distance (km) Brightness Sun altitude
Rises 04:43:06 0° 273° (W) 3,626 - -63.2°
Reaches altitude 10° 04:45:47 10° 267° (W) 2,712 - -63.6°
Maximum altitude 04:51:58 44° 197° (SSW) 1,373 - -64.5°
Drops below altitude 10° 04:58:36 10° 127° (SE) 2,898 - -65.4°
Sets 05:01:34 0° 121° (ESE) 3,899 - -65.8°
